Location: Leverkusen
(51.0459°N, 7.0192°E)
Time: 02:19:09
(UTC+01:00)

ISS - Pass Details

Date: 26 January 2019
Orbit: 403 x 411 km, 51.6° (Epoch: 19 February)

Event Time Altitude Azimuth Distance (km) Brightness Sun altitude
Rises 19:12:07 0° 240° (WSW) 2,329 1.3 -18.7°
Reaches altitude 10° 19:14:13 10° 236° (SW) 1,473 -0.1 -19.0°
Enters shadow 19:17:22 54° 165° (SSE) 503 -3.5 -19.5°
